TimeEST,TemperatureF,Dew PointF,Humidity,Sea Level PressureIn,VisibilityMPH,Wind Direction,Wind SpeedMPH,Gust SpeedMPH,PrecipitationIn,Events,Conditions,WindDirDegrees,DateUTC
12:53 AM,32.0,28.0,85,30.17,10.0,Calm,Calm,-,N/A,,Clear,0,2012-11-08 05:53:00
1:53 AM,32.0,28.0,85,30.16,10.0,Calm,Calm,-,N/A,,Clear,0,2012-11-08 06:53:00
2:53 AM,28.9,26.1,89,30.17,10.0,North,3.5,-,N/A,,Clear,360,2012-11-08 07:53:00
3:53 AM,27.0,24.1,89,30.17,9.0,Calm,Calm,-,N/A,,Clear,0,2012-11-08 08:53:00
4:53 AM,30.9,27.0,85,30.19,10.0,NW,4.6,-,N/A,,Clear,320,2012-11-08 09:53:00
5:53 AM,28.0,25.0,88,30.20,10.0,Calm,Calm,-,N/A,,Clear,0,2012-11-08 10:53:00
6:53 AM,28.0,25.0,88,30.22,10.0,Calm,Calm,-,N/A,,Clear,0,2012-11-08 11:53:00
7:53 AM,32.0,27.0,82,30.23,10.0,Calm,Calm,-,N/A,,Clear,0,2012-11-08 12:53:00
8:53 AM,36.0,28.0,73,30.24,10.0,North,3.5,-,N/A,,Clear,350,2012-11-08 13:53:00
9:53 AM,39.9,28.9,65,30.25,10.0,NNE,6.9,-,N/A,,Clear,20,2012-11-08 14:53:00
10:53 AM,42.1,28.9,60,30.25,10.0,North,4.6,-,N/A,,Partly Cloudy,350,2012-11-08 15:53:00
11:15 AM,42.8,28.4,57,30.22,10.0,North,5.8,-,N/A,,Mostly Cloudy,360,2012-11-08 16:15:00
11:53 AM,42.1,28.9,60,30.23,10.0,Variable,3.5,-,N/A,,Mostly Cloudy,0,2012-11-08 16:53:00
12:04 PM,44.6,30.2,57,30.20,10.0,Calm,Calm,-,N/A,,Scattered Clouds,0,2012-11-08 17:04:00
12:53 PM,44.1,28.9,55,30.21,10.0,Variable,3.5,-,N/A,,Clear,0,2012-11-08 17:53:00
1:53 PM,46.0,30.9,56,30.19,10.0,Calm,Calm,-,N/A,,Partly Cloudy,0,2012-11-08 18:53:00
2:53 PM,45.0,30.9,58,30.18,10.0,ESE,5.8,-,N/A,,Clear,120,2012-11-08 19:53:00
3:53 PM,45.0,30.0,56,30.18,10.0,ESE,3.5,-,N/A,,Clear,120,2012-11-08 20:53:00
4:53 PM,42.1,30.9,65,30.18,10.0,SE,6.9,-,N/A,,Mostly Cloudy,130,2012-11-08 21:53:00
5:53 PM,39.0,32.0,76,30.18,10.0,SE,4.6,-,N/A,,Clear,140,2012-11-08 22:53:00
6:53 PM,39.0,30.9,73,30.18,10.0,SSE,5.8,-,N/A,,Clear,150,2012-11-08 23:53:00
7:53 PM,37.0,32.0,82,30.18,10.0,SSE,4.6,-,N/A,,Clear,150,2012-11-09 00:53:00
8:53 PM,36.0,32.0,86,30.17,10.0,South,4.6,-,N/A,,Clear,170,2012-11-09 01:53:00
9:53 PM,35.1,30.9,85,30.16,9.0,SSE,3.5,-,N/A,,Clear,160,2012-11-09 02:53:00
10:53 PM,36.0,32.0,86,30.17,9.0,Calm,Calm,-,N/A,,Clear,0,2012-11-09 03:53:00
11:53 PM,34.0,30.9,89,30.17,8.0,Calm,Calm,-,N/A,,Clear,0,2012-11-09 04:53:00